Wind_Speed
82 83 80 77 77 80 80 92 92 92 90 90 85 78 83 93 92 85 81 86 89 87 89 87 85 77 75 70 69 68 67 64 66 63 60 55 56 56 55 54 58 58 58 59
81 85 87 87 85 79 79 84 92 97 96 98 96 89 84 85 91 91 87 86 83 82 88 90 88 84 83 75 74 73 69 71 64 67 68 61 62 59 57 58 60 62 63 64
67 72 84 85 89 91 85 82 83 89 99 101 100 95 93 86 86 86 90 93 90 89 88 86 86 90 88 82 79 76 75 73 72 72 68 65 65 64 64 66 67 66 69 71
61 66 72 80 87 87 82 84 85 85 89 95 104 98 96 96 91 84 83 99 99 93 94 88 90 89 89 88 82 80 77 76 75 74 73 67 65 64 68 65 60 67 66 70
56 58 63 68 72 76 79 80 80 81 85 88 92 104 93 98 93 93 87 85 92 101 99 98 92 93 94 91 80 81 79 77 76 77 75 71 69 69 66 68 72 69 69 70
54 57 60 63 67 71 74 77 81 83 85 83 91 99 89 97 97 97 94 91 88 92 100 102 99 95 91 95 89 84 86 81 81 79 77 75 75 75 71 69 72 72 73 74
52 53 55 59 64 69 72 76 77 78 81 77 89 96 82 92 100 103 102 98 95 93 94 99 100 102 97 95 100 89 89 88 87 85 84 81 81 80 77 76 77 78 77 78
49 56 56 58 62 66 71 72 72 72 75 71 77 83 81 94 99 102 105 105 101 97 96 93 96 103 105 100 104 104 95 90 91 87 86 86 86 84 82 81 82 82 80 79
49 59 61 62 59 63 70 71 71 67 71 67 73 74 75 86 91 96 100 104 103 101 98 96 95 94 93 89 90 97 102 97 90 90 85 85 87 89 87 82 81 81 80 81
56 61 56 54 59 59 63 67 67 68 70 68 74 74 73 78 84 87 93 100 105 105 102 103 98 91 88 89 89 85 89 94 88 88 86 88 86 86 85 83 81 83 80 75
55 54 54 55 57 58 58 61 61 63 65 65 67 71 74 75 79 80 83 89 96 99 101 106 103 95 88 89 86 84 80 80 82 80 88 86 87 84 82 83 82 77 79 82
52 51 52 51 52 53 54 55 57 57 59 56 56 59 60 62 64 69 75 76 79 84 87 95 100 94 86 86 84 82 79 69 67 68 79 74 81 87 81 84 75 75 79 77
46 43 43 41 41 44 47 48 50 51 52 52 53 56 58 59 60 64 64 64 65 68 77 81 84 88 85 83 82 81 75 65 60 66 70 74 59 58 67 68 68 75 79 79
41 35 33 30 31 31 35 34 35 37 37 38 41 41 44 46 52 55 52 51 54 59 64 66 69 77 80 80 79 74 67 63 72 56 56 59 61 63 68 72 73 76 80 87
35 29 25 24 24 24 26 26 26 21 23 25 27 25 24 25 29 40 40 41 45 46 54 59 62 65 70 72 72 67 64 65 69 55 57 58 63 66 70 72 75 80 81 87
28 24 20 19 19 19 20 17 16 25 29 29 30 25 23 25 26 12 18 29 39 46 47 51 54 60 60 65 69 66 65 66 57 63 67 67 69 70 76 76 83 83 84 86
22 20 16 15 17 18 19 27 42 41 39 48 45 38 25 29 27 28 19 16 32 36 41 43 49 51 40 40 66 61 61 54 59 68 67 70 74 76 81 86 84 87 87 87
18 17 14 13 15 19 28 45 45 52 45 43 44 36 33 29 31 38 40 21 24 24 32 35 49 48 43 44 56 57 61 68 67 66 72 79 80 79 83 83 86 90 91 92
15 13 11 10 15 26 39 55 52 56 52 50 45 46 43 38 36 33 36 32 32 38 29 30 45 55 57 64 58 62 58 61 67 74 76 76 82 84 84 86 90 90 87 93
13 9 10 12 18 33 50 58 56 62 55 50 49 50 48 44 47 42 47 47 41 35 48 47 46 46 58 64 56 55 68 63 78 78 74 77 80 80 85 87 86 88 93 95
9 8 12 17 24 37 56 59 63 63 61 52 50 52 50 46 46 40 46 45 41 41 42 55 54 53 49 50 60 62 67 69 75 72 78 81 85 88 85 88 84 81 89 94
5 8 13 19 29 46 56 62 57 58 63 54 50 51 54 50 41 37 50 48 36 30 40 49 52 59 56 57 62 67 71 66 68 70 72 79 82 90 88 85 88 94 100 105
4 9 13 21 31 50 60 63 64 59 62 57 50 45 55 51 41 41 43 44 44 39 41 49 50 57 54 56 58 59 63 64 67 74 75 75 78 79 81 86 90 95 99 106
4 10 15 22 32 49 56 66 61 59 59 56 55 48 48 58 53 49 47 46 42 39 40 39 43 50 52 50 50 52 56 64 65 70 73 74 79 84 89 93 97 104 108 115
8 11 13 20 31 55 64 67 59 53 56 56 50 48 52 57 52 50 50 46 40 38 43 39 41 50 56 54 50 56 58 63 66 72 74 76 81 85 92 99 104 108 112 116
15 17 15 15 23 51 62 69 63 58 52 50 43 39 40 40 45 46 52 42 42 41 40 41 43 45 46 48 55 63 68 70 72 77 80 87 90 94 99 102 107 112 118 123
Wind_Direction
257 253 253 252 249 248 245 242 241 242 242 240 234 234 238 238 239 240 242 240 237 240 238 236 236 238 240 242 241 245 246 252 256 257 257 258 263 265 271 273 274 273 278 277
261 258 256 254 254 250 248 244 242 240 242 242 242 235 234 237 237 238 239 239 236 238 240 237 238 241 243 246 244 249 248 247 247 250 256 259 261 264 269 272 273 274 277 278
264 260 256 256 254 254 257 251 246 245 242 241 241 240 240 236 235 239 236 237 238 240 240 237 240 239 241 241 246 246 248 248 252 254 252 256 262 265 272 274 274 277 279 281
261 258 258 256 255 256 254 251 249 245 245 243 242 237 241 242 239 238 238 236 237 239 238 237 240 238 238 242 243 245 246 251 253 252 253 254 257 256 260 260 270 276 276 282
267 262 258 256 256 254 252 252 250 246 241 241 243 242 234 240 241 238 237 237 238 237 238 236 236 237 236 239 242 247 246 249 252 253 254 254 258 261 263 267 273 271 270 270
270 264 260 255 254 254 254 252 250 248 242 239 241 242 233 234 238 239 236 236 238 238 237 236 238 235 237 238 244 245 246 247 248 251 254 255 257 260 264 268 272 276 274 275
274 267 264 261 255 252 252 253 252 249 248 240 241 242 235 234 233 237 238 237 236 238 239 237 239 237 236 241 244 245 244 248 249 250 253 256 259 259 260 263 266 270 276 277
274 271 264 259 256 254 252 251 253 251 251 248 245 243 238 236 235 233 236 237 236 236 240 240 241 241 237 241 245 244 245 248 249 250 252 254 256 258 263 266 270 271 275 278
273 269 264 263 263 259 258 257 257 253 251 249 249 244 237 239 238 237 235 236 235 234 234 239 240 241 240 243 244 246 246 247 248 249 253 256 258 260 262 266 269 273 276 278
277 275 275 271 264 264 261 261 260 257 254 250 250 248 242 239 238 238 239 238 237 234 232 234 236 239 239 240 242 246 246 246 247 249 256 256 258 260 262 264 268 273 275 274
281 279 276 271 270 268 265 262 259 259 257 254 251 250 250 247 246 244 242 238 237 236 233 233 233 235 238 238 240 243 247 249 250 253 255 257 259 261 263 266 271 271 271 271
288 284 279 275 271 268 265 262 260 257 257 256 253 250 247 245 242 241 240 238 235 235 233 232 232 232 234 236 238 241 245 248 251 249 255 258 261 264 263 266 267 271 273 270
295 286 280 273 267 262 259 257 256 254 253 251 251 249 248 247 242 240 235 233 230 229 230 231 230 231 232 232 235 237 241 247 245 245 248 253 247 259 267 266 265 261 263 268
302 294 283 272 262 256 254 249 246 244 243 244 243 243 242 240 240 240 235 227 225 224 225 226 227 227 227 228 232 236 235 225 231 246 249 247 253 259 248 259 261 261 263 267
305 295 282 269 257 243 238 237 231 221 216 211 212 206 208 211 227 234 231 220 217 217 218 219 221 224 224 224 229 229 229 235 235 242 242 247 251 250 253 260 262 264 265 267
303 291 280 262 246 228 220 203 182 180 183 174 140 133 148 160 163 168 206 209 206 206 208 211 213 217 223 228 226 226 227 231 227 239 242 249 249 249 255 257 259 259 265 268
302 284 270 244 226 196 177 157 161 159 154 143 138 139 145 142 140 139 138 164 189 199 201 204 209 211 208 222 223 229 226 225 231 236 241 247 245 248 248 255 256 260 265 269
302 287 269 238 202 170 161 163 160 150 146 143 144 142 138 149 127 150 155 153 158 174 188 177 200 201 201 213 223 228 219 216 229 238 240 240 247 245 251 257 260 266 271 271
303 284 264 229 191 169 160 167 157 150 147 147 147 148 146 142 157 149 159 179 163 176 188 176 193 187 198 207 210 211 215 224 235 232 238 247 249 252 254 258 262 266 270 273
301 265 233 197 189 171 167 168 162 157 157 153 154 156 157 162 164 170 170 166 173 189 177 181 191 202 206 217 215 227 221 232 234 236 243 246 250 255 258 262 269 272 273 276
295 231 206 188 181 176 169 169 164 165 166 160 161 163 163 166 169 177 180 184 188 189 190 188 194 197 212 220 216 225 232 234 235 241 247 249 252 257 264 268 273 274 273 271
281 219 186 180 179 176 171 172 170 177 172 171 170 172 176 172 176 180 189 188 189 199 195 198 204 209 208 217 221 228 234 239 243 248 252 256 258 260 260 268 273 270 269 272
211 193 176 174 177 179 177 174 171 173 169 177 179 185 185 181 178 177 187 191 199 191 204 209 215 213 225 232 237 243 245 248 252 253 256 257 260 267 265 267 266 270 274 274
169 155 162 172 180 183 178 176 176 174 172 181 178 185 181 189 186 185 194 199 205 208 208 208 212 217 223 228 236 244 247 249 253 257 260 261 264 265 264 265 269 272 273 274
104 122 152 171 181 180 175 179 175 179 183 187 186 188 187 188 190 191 201 205 207 214 218 215 226 232 235 241 248 253 259 257 260 262 262 262 264 265 265 268 269 273 277 281
88 103 116 155 184 182 181 182 180 187 190 191 192 200 195 195 203 207 207 210 214 219 227 229 232 244 244 248 250 248 249 253 258 259 262 263 266 269 271 274 278 280 281 282
Height
10577 10574 10576 10577 10579 10581 10584 10589 10596 10601 10603 10606 10617 10627 10634 10640 10652 10662 10667 10672 10682 10688 10690 10698 10707 10713 10719 10725 10729 10732 10736 10739 10742 10744 10745 10748 10750 10750 10751 10751 10749 10748 10747 10745
10552 10549 10554 10555 10556 10558 10562 10566 10573 10579 10581 10586 10592 10610 10614 10624 10631 10641 10647 10654 10663 10668 10674 10684 10689 10697 10706 10709 10716 10721 10723 10726 10730 10732 10735 10738 10738 10740 10740 10740 10738 10738 10736 10734
10527 10526 10529 10531 10531 10534 10539 10542 10548 10554 10556 10567 10572 10594 10600 10608 10610 10621 10632 10637 10644 10651 10658 10668 10673 10681 10687 10696 10702 10706 10710 10714 10716 10721 10724 10725 10728 10729 10730 10729 10728 10726 10725 10724
10506 10506 10504 10503 10504 10510 10515 10516 10524 10529 10533 10544 10547 10574 10581 10585 10601 10605 10612 10616 10621 10631 10637 10649 10655 10664 10673 10678 10683 10691 10697 10701 10705 10710 10712 10714 10717 10717 10717 10716 10715 10715 10711 10710
10486 10485 10484 10483 10483 10487 10490 10493 10499 10505 10511 10518 10530 10531 10569 10562 10577 10584 10589 10595 10602 10612 10619 10630 10637 10645 10655 10663 10670 10678 10685 10691 10695 10695 10700 10704 10705 10704 10705 10703 10702 10700 10697 10694
10467 10466 10465 10464 10464 10465 10468 10470 10475 10480 10487 10504 10498 10498 10542 10545 10551 10558 10567 10574 10583 10587 10597 10609 10615 10629 10641 10651 10658 10666 10670 10677 10681 10684 10687 10691 10691 10692 10691 10689 10688 10687 10683 10681
10448 10447 10446 10444 10445 10445 10447 10446 10451 10459 10463 10481 10473 10480 10528 10520 10524 10530 10541 10554 10565 10569 10577 10593 10598 10612 10625 10632 10640 10646 10654 10660 10665 10671 10673 10676 10677 10678 10676 10675 10672 10672 10671 10667
10432 10426 10427 10426 10424 10424 10424 10429 10433 10441 10444 10461 10461 10475 10495 10487 10496 10507 10517 10529 10544 10556 10563 10576 10583 10592 10605 10615 10621 10629 10639 10644 10651 10655 10660 10661 10662 10662 10661 10661 10659 10658 10657 10652
10417 10405 10406 10408 10411 10409 10406 10410 10417 10428 10428 10443 10438 10450 10470 10468 10475 10485 10497 10505 10522 10535 10546 10556 10563 10576 10589 10600 10605 10611 10620 10628 10636 10641 10646 10648 10649 10648 10648 10647 10646 10644 10641 10636
10394 10388 10393 10394 10389 10393 10394 10393 10398 10402 10407 10421 10418 10429 10443 10449 10454 10465 10474 10485 10496 10511 10529 10534 10546 10558 10572 10581 10589 10595 10603 10611 10621 10626 10629 10631 10633 10635 10634 10631 10632 10631 10629 10622
10379 10376 10372 10372 10372 10372 10376 10373 10379 10383 10387 10395 10401 10409 10415 10430 10435 10445 10453 10464 10474 10489 10508 10514 10530 10543 10555 10564 10574 10582 10589 10598 10605 10608 10613 10617 10618 10621 10618 10620 10619 10615 10611 10605
10362 10359 10356 10355 10353 10353 10353 10355 10358 10363 10364 10373 10381 10386 10395 10403 10412 10419 10426 10438 10454 10470 10485 10496 10512 10527 10538 10551 10560 10570 10578 10588 10591 10597 10600 10604 10603 10606 10606 10607 10604 10595 10591 10585
10344 10340 10337 10337 10336 10336 10334 10339 10342 10347 10351 10357 10362 10367 10374 10382 10388 10394 10407 10422 10436 10452 10464 10478 10498 10513 10525 10537 10547 10558 10567 10576 10579 10583 10587 10590 10597 10593 10592 10587 10586 10581 10575 10571
10327 10324 10320 10321 10321 10323 10323 10327 10331 10334 10340 10346 10350 10356 10363 10368 10374 10380 10394 10410 10424 10437 10452 10467 10484 10499 10513 10525 10535 10547 10557 10565 10568 10574 10576 10578 10580 10580 10577 10573 10569 10565 10561 10556
10315 10311 10309 10309 10311 10313 10315 10318 10323 10330 10334 10339 10345 10351 10356 10361 10367 10374 10386 10402 10416 10430 10443 10458 10474 10490 10504 10515 10527 10537 10547 10553 10560 10564 10564 10564 10564 10562 10560 10556 10553 10549 10545 10537
10306 10302 10300 10300 10302 10306 10309 10314 10320 10326 10331 10337 10345 10351 10357 10364 10369 10378 10387 10396 10407 10423 10437 10452 10468 10481 10496 10508 10517 10527 10534 10543 10547 10551 10549 10548 10549 10548 10545 10542 10536 10530 10528 10524
10298 10296 10296 10295 10297 10302 10306 10313 10319 10327 10333 10340 10348 10356 10362 10370 10376 10382 10393 10400 10409 10421 10437 10450 10466 10480 10492 10496 10507 10516 10523 10529 10533 10533 10535 10535 10534 10532 10530 10523 10522 10519 10513 10508
10291 10289 10290 10292 10294 10299 10305 10312 10320 10329 10336 10342 10352 10359 10366 10376 10380 10389 10396 10406 10413 10427 10436 10449 10459 10473 10483 10491 10494 10503 10509 10515 10519 10520 10521 10520 10517 10516 10514 10510 10508 10503 10497 10492
10285 10283 10284 10286 10291 10297 10305 10313 10321 10332 10338 10345 10351 10361 10368 10376 10387 10394 10403 10412 10420 10429 10434 10444 10453 10460 10470 10477 10487 10493 10499 10505 10504 10504 10505 10505 10504 10504 10500 10497 10491 10486 10478 10472
10280 10279 10280 10284 10289 10294 10304 10313 10323 10330 10336 10343 10351 10361 10369 10379 10388 10397 10403 10410 10419 10427 10436 10446 10455 10462 10469 10474 10483 10487 10488 10490 10492 10494 10494 10492 10492 10488 10483 10479 10475 10469 10462 10452
10276 10275 10277 10280 10287 10293 10303 10312 10322 10329 10336 10345 10353 10361 10369 10379 10388 10395 10405 10414 10422 10429 10436 10443 10450 10455 10464 10469 10474 10477 10478 10477 10479 10481 10479 10478 10476 10470 10466 10463 10456 10448 10442 10433
10272 10273 10274 10277 10286 10292 10302 10310 10322 10331 10338 10347 10354 10363 10369 10378 10387 10395 10404 10412 10419 10427 10433 10439 10442 10447 10453 10459 10463 10465 10466 10467 10468 10467 10465 10462 10458 10455 10451 10448 10441 10432 10422 10411
10271 10271 10272 10276 10285 10293 10302 10311 10322 10332 10339 10347 10356 10363 10370 10380 10387 10393 10401 10408 10415 10420 10427 10435 10440 10447 10451 10451 10451 10454 10454 10455 10453 10453 10451 10449 10445 10441 10437 10429 10418 10408 10398 10387
10271 10271 10273 10277 10285 10294 10304 10314 10324 10334 10340 10348 10356 10362 10369 10376 10382 10387 10394 10401 10408 10415 10423 10430 10435 10438 10441 10443 10444 10444 10445 10445 10442 10439 10435 10429 10425 10419 10410 10403 10394 10385 10375 10365
10276 10276 10278 10282 10287 10297 10306 10316 10326 10334 10340 10346 10355 10360 10369 10377 10383 10388 10393 10402 10409 10414 10419 10421 10426 10429 10432 10433 10434 10434 10432 10428 10424 10421 10416 10412 10406 10399 10391 10383 10376 10367 10356 10344
10284 10286 10287 10289 10291 10299 10309 10319 10326 10336 10344 10349 10359 10366 10374 10381 10388 10394 10400 10405 10409 10414 10417 10419 10420 10422 10423 10424 10423 10420 10417 10415 10412 10406 10400 10394 10389 10382 10375 10367 10356 10344 10330 10317